KUIPER-00109

导读

KUIPER-00109是美国亚马逊“柯伊伯计划”星座中的一颗近地轨道互联网卫星,于2025年8月11日发射升空。该卫星属于柯伊伯第一代星座,该星座计划部署超3200颗卫星,旨在提供高速低延迟的全球卫星宽带服务,挑战星链主导的卫星互联网市场。KUIPER-00109配备多用户波束相控阵天线,可根据区域需求灵活分配容量,依靠商用硬件降低成本,助力亚马逊推进全球宽带覆盖目标。

基本信息
目录编号:
65147
目录名称:
KUIPER-00109
国际标识:
2025-171R
轨道中心:
EARTH
卫星名称:
KUIPER-00109
卫星全名:
KUIPER-00109
卫星状态:
在轨 (已飞行400 天)
发射日期:
2025-08-11 UTC
国别 :
美国 (US)
星等 :
--
该卫星已列入 空间交会检测服务 Space Conjunction Data Service (SCDS) ,当前飞行风险评估等级: 无高风险
轨道信息
数据来源 国际轨道数据 AOE轨道数据
星历时间 2026-09-15T16:54:50+0800
14小时前
查看轨道信息
2026-09-10T08:00:00+0800
5天前
查看轨道信息
半长轴 7007.691km 7007.738km
偏心率 0.0000513 0.0000026
轨道倾角 51.904° 51.900°
近地点辐角 100.827° 87.973°
升交点赤经 36.815° 60.567°
平近点角 259.275° 77.337°
近地点 629.194km 629.582km
远地点 629.914km 629.62km
周期 97.302分钟 97.303分钟
每日圈数 14.799272 14.799123
详细信息
使用方式:
暂无
2D轨道图
3D轨道图
轨道高度分析图
轨道倾角分析图
轨道综合分析图
查看轨道综合分析图
交会数据列表
事件ID 空间交会对象 最接近时刻(TCA) 交会距离 交会风险概率(CRP) 交会风险指数(CRI) 操作
CDM_260912-094103-502506-514725
2026-09-12T
09:41:11+0000
2.213 km
极远距离
2.103365E-6 低风险 0.41
CDM_260916-033804-141906-514721
2026-09-16T
03:38:31+0000
2.312 km
极远距离
1.222874E-6 低风险 0.37
与全量物体交会距离演化趋势 订阅飞行安全评估服务
与全量物体交会风险概率演化趋势 订阅飞行安全评估服务